www.pogodaiklimat.ru

Погода и климат >> Архив погоды >> Бразилия >> Токантинс >> Императрис


ПОГОДА в Императрисе

  • Прогноз погоды в Императрисе
  • Монитор погоды в Императрисе

АРХИВ ПОГОДЫ в Императрисе

Время (UTC), дата Ветер
(напр.,м/с)
 
Видим.   Явления Облачность Т
(С)
Тd
(С)
f
(%)
Тe
(С)
Тes
(С)
Комфортность P
(гПа)
Po
(гПа)
Тmin
(С)
Tmax
(С)
R
(мм)
R24
(мм)
S
(см)
04 19.04 штиль 0
{1}
н/о н/о +24.7 +22.2 86 +32 +32 очень
душно
1010.8 997.2
05 19.04 штиль 0
{1}
н/о н/о +24.4 +22.0 86 +31 +31 очень
душно
1010.0 996.4
06 19.04 штиль 0
{1}
н/о н/о +24.0 +21.7 87 +31 +31 очень
душно
1010.0 996.4
07 19.04 штиль 0
{1}
н/о н/о +23.9 +21.7 88 +31 +31 очень
душно
1010.5 996.9
08 19.04 штиль 0 н/о н/о +24.0 +21.9 88 +31 +31 очень
душно
1010.9 997.3
09 19.04 штиль 0 н/о н/о +24.1 +22.0 88 +31 +31 очень
душно
1011.6 998.0
10 19.04 штиль 0 н/о н/о +24.6 +22.5 88 +32 +32 очень
душно
1012.7 999.1
12 19.04 СВ 1
{1}
н/о н/о +27.2 +24.1 83 +38 +38 очень
душно
1014.3 1000.8
13 19.04 СВ 1
{3}
н/о н/о +29.8 +25.7 79 +44 +44 опасность
перегрева
1014.1 1000.7
14 19.04 СВ 1
{3}
н/о н/о +30.4 +25.3 74 +44 +44 опасность
перегрева
1013.8 1000.4
15 19.04 В 1
{3}
н/о н/о +31.2 +25.0 70 +45 +45 опасность
перегрева
1012.6 999.3
16 19.04 СВ 1
{2}
н/о н/о +32.0 +24.6 65 +45 +45 опасность
перегрева
1011.4 998.1
17 19.04 В 1
{6}
н/о н/о +31.6 +23.1 61 +42 +42 опасность
перегрева
1010.4 997.1
18 19.04 В 2
{6}
н/о н/о +26.1 +21.4 75 +33 +33 очень
душно
1009.6 996.1 4
19 19.04 СВ 1
{3}
н/о н/о +28.7 +23.3 73 +39 +39 очень
душно
1009.1 995.7
20 19.04 С 1
{3}
н/о н/о +28.6 +22.4 69 +37 +37 очень
душно
1008.9 995.5
21 19.04 С 1
{2}
н/о н/о +27.1 +21.4 71 +34 +34 очень
душно
1009.2 995.7
22 19.04 штиль 0
{2}
н/о н/о +26.3 +21.4 74 +33 +33 очень
душно
1010.1 996.6
23 19.04 штиль 0
{1}
н/о н/о +25.8 +21.4 77 +33 +33 очень
душно
1011.4 997.9
00 20.04 штиль 0
{1}
н/о н/о +25.0 +21.2 79 +32 +32 очень
душно
1012.6 999.0
02 20.04 штиль 0
{1}
н/о н/о +24.7 +21.6 83 +32 +32 очень
душно
1012.9 999.3
03 20.04 штиль 0 н/о н/о +24.3 +21.4 84 +31 +31 очень
душно
1012.4 998.8
04 20.04 штиль 0
{1}
н/о н/о +23.9 +21.2 85 +30 +30 очень
душно
1012.0 998.4
05 20.04 штиль 0
{1}
н/о н/о +23.8 +21.3 86 +30 +30 очень
душно
1011.3 997.7
06 20.04 штиль 0
{1}
н/о н/о +24.0 +21.6 86 +31 +31 очень
душно
1011.2 997.6
07 20.04 штиль 0
{1}
н/о н/о +23.6 +21.4 87 +30 +30 очень
душно
1011.3 997.7
08 20.04 штиль 0
{1}
н/о н/о +23.4 +21.2 87 +31 +31 очень
душно
1011.5 997.8
09 20.04 штиль 0 н/о н/о +23.7 +21.6 88 +30 +30 очень
душно
1012.3 998.6
10 20.04 штиль 0
{1}
н/о н/о +24.2 +22.1 88 +31 +31 очень
душно
1012.9 999.3
11 20.04 штиль 0
{1}
н/о н/о +25.3 +23.1 88 +34 +34 очень
душно
1013.8 1000.2
12 20.04 штиль 0
{1}
н/о н/о +26.4 +24.0 87 +37 +37 очень
душно
1014.4 1000.8
13 20.04 В 1
{2}
н/о н/о +28.4 +25.3 83 +41 +41 опасность
перегрева
1014.3 1000.8
14 20.04 штиль 0
{2}
н/о н/о +29.1 +24.9 78 +42 +42 опасность
перегрева
1013.9 1000.5
15 20.04 штиль 0
{2}
н/о н/о +30.8 +25.6 74 +45 +45 опасность
перегрева
1013.2 999.8
16 20.04 штиль 0
{2}
н/о н/о +30.9 +24.7 70 +44 +44 опасность
перегрева
1011.9 998.6
17 20.04 СВ 1
{2}
н/о н/о +32.3 +25.4 67 +47 +47 опасность
перегрева
1010.5 997.2
18 20.04 СВ 1
{2}
н/о н/о +31.6 +23.6 63 +43 +43 опасность
перегрева
1009.1 995.8
19 20.04 СВ 1
{2}
н/о н/о +32.1 +23.6 61 +43 +43 опасность
перегрева
1008.7 995.5
20 20.04 В 1
{2}
н/о н/о +31.1 +22.5 60 +40 +40 очень
душно
1008.4 995.1
21 20.04 штиль 0
{1}
н/о н/о +29.2 +22.1 66 +38 +38 очень
душно
1009.4 996.0
22 20.04 штиль 0
{1}
н/о н/о +28.3 +22.4 70 +37 +37 очень
душно
1010.3 996.9
23 20.04 С 2
{3}
н/о н/о +27.7 +22.3 72 +36 +36 очень
душно
1011.7 998.2
00 21.04 В 1
{3}
н/о н/о +25.9 +20.7 73 +32 +32 очень
душно
1012.3 998.7
01 21.04 штиль 0
{2}
н/о н/о +24.8 +20.4 77 +31 +31 очень
душно
1012.5 998.9
02 21.04 штиль 0
{1}
н/о н/о +24.6 +20.7 79 +31 +31 очень
душно
1012.5 998.9
03 21.04 штиль 0
{1}
н/о н/о +24.4 +20.8 80 +30 +30 очень
душно
1012.0 998.4
04 21.04 штиль 0
{1}
н/о н/о +23.6 +20.4 82 +29 +29 душно 1011.8 998.1
05 21.04 штиль 0 н/о н/о +23.6 +20.6 83 +29 +29 душно 1011.0 997.4
06 21.04 штиль 0
{1}
н/о н/о +23.2 +20.5 85 +31 +31 очень
душно
1010.7 997.0
07 21.04 штиль 0
{1}
н/о н/о +23.4 +20.8 85 +31 +31 очень
душно
1010.6 997.0
08 21.04 штиль 0
{1}
н/о н/о +23.2 +20.8 86 +31 +31 очень
душно
1010.7 997.0
09 21.04 штиль 0 н/о н/о +22.9 +20.6 87 +30 +30 очень
душно
1011.0 997.3
10 21.04 штиль 0 н/о н/о +23.8 +21.5 87 +30 +30 очень
душно
1011.8 998.2
11 21.04 штиль 0
{1}
н/о н/о +25.5 +22.9 86 +34 +34 очень
душно
1012.9 999.3
12 21.04 С 1
{2}
н/о н/о +26.8 +23.7 83 +37 +37 очень
душно
1013.5 1000.0
13 21.04 штиль 0
{2}
н/о н/о +27.9 +23.9 79 +39 +39 очень
душно
1013.5 1000.0
14 21.04 З 1
{2}
н/о н/о +29.5 +24.5 75 +42 +42 опасность
перегрева
1013.2 999.8
15 21.04 штиль 0
{2}
н/о н/о +31.0 +24.6 69 +44 +44 опасность
перегрева
1011.9 998.6
16 21.04 СВ 1
{2}
н/о н/о +31.9 +24.3 64 +44 +44 опасность
перегрева
1010.5 997.2
17 21.04 Ю 1
{2}
н/о н/о +30.6 +22.6 62 +40 +40 очень
душно
1009.1 995.8
18 21.04 Ю 1
{2}
н/о н/о +32.6 +24.0 61 +45 +45 опасность
перегрева
1007.7 994.5
19 21.04 Ю 1
{3}
н/о н/о +31.7 +22.8 59 +41 +41 опасность
перегрева
1007.5 994.3
20 21.04 штиль 0
{2}
н/о н/о +31.3 +22.3 59 +40 +40 очень
душно
1008.0 994.7
21 21.04 штиль 0
{1}
н/о н/о +29.2 +21.4 63 +37 +37 очень
душно
1008.5 995.1
22 21.04 штиль 0
{1}
н/о н/о +27.3 +21.1 69 +34 +34 очень
душно
1009.5 996.0
23 21.04 штиль 0
{1}
н/о н/о +27.0 +22.0 74 +35 +35 очень
душно
1010.5 997.0
00 22.04 штиль 0
{1}
н/о н/о +26.4 +22.1 77 +34 +34 очень
душно
1010.9 997.4
01 22.04 штиль 0
{1}
н/о н/о +25.9 +21.9 79 +33 +33 очень
душно
1011.5 998.0
02 22.04 штиль 0
{1}
н/о н/о +25.3 +21.6 80 +32 +32 очень
душно
1011.8 998.2
03 22.04 штиль 0
{1}
н/о н/о +24.8 +21.4 81 +31 +31 очень
душно
1011.4 997.8
04 22.04 штиль 0
{1}
н/о н/о +25.1 +21.8 82 +32 +32 очень
душно
1011.0 997.4
05 22.04 штиль 0
{1}
н/о н/о +24.3 +21.2 83 +31 +31 очень
душно
1010.4 996.8
06 22.04 штиль 0 н/о н/о +23.8 +20.9 84 +30 +30 очень
душно
1010.3 996.7
07 22.04 штиль 0 н/о н/о +23.8 +21.0 84 +30 +30 очень
душно
1010.1 996.5
08 22.04 штиль 0 н/о н/о +24.0 +21.4 85 +30 +30 очень
душно
1010.5 996.9
09 22.04 штиль 0
{1}
н/о н/о +24.1 +21.6 86 +31 +31 очень
душно
1010.8 997.2
10 22.04 штиль 0
{1}
н/о н/о +24.6 +22.1 86 +32 +32 очень
душно
1011.6 998.0
11 22.04 штиль 0
{1}
н/о н/о +25.8 +23.1 85 +34 +34 очень
душно
1012.2 998.6
12 22.04 штиль 0
{1}
н/о н/о +27.3 +23.9 82 +38 +38 очень
душно
1012.7 999.2
13 22.04 штиль 0
{1}
н/о н/о +27.4 +23.4 79 +37 +37 очень
душно
1013.0 999.5
14 22.04 штиль 0
{2}
н/о н/о +30.0 +25.1 75 +43 +43 опасность
перегрева
1012.1 998.7
15 22.04 З 1
{2}
н/о н/о +30.1 +24.3 71 +42 +42 опасность
перегрева
1011.0 997.6
16 22.04 Ю 1
{2}
н/о н/о +31.5 +24.6 67 +44 +44 опасность
перегрева
1009.7 996.4
17 22.04 Ю 1
{3}
н/о н/о +31.5 +23.5 63 +43 +43 опасность
перегрева
1008.1 994.8
18 22.04 Ю 1
{3}
н/о н/о +32.3 +23.4 59 +43 +43 опасность
перегрева
1007.3 994.1
19 22.04 Ю 1
{2}
н/о н/о +31.2 +22.5 60 +41 +41 опасность
перегрева
1007.1 993.8
20 22.04 Ю 1
{2}
н/о н/о +30.5 +22.2 61 +39 +39 очень
душно
1007.5 994.2
21 22.04 ЮВ 2
{5}
н/о н/о +26.4 +19.2 65 +32 +32 очень
душно
1009.6 996.1 0.6
22 22.04 В 2
{5}
н/о н/о +23.9 +20.0 79 +29 +29 душно 1010.4 996.8 18
23 22.04
{3}
н/о н/о +24.0 +20.9 83 1010.9 997.3 0.4
01 23.04 штиль 0
{1}
н/о н/о +23.8 +21.2 85 +30 +30 очень
душно
1013.0 999.3 0.4
02 23.04 штиль 0
{1}
н/о н/о +24.1 +21.6 86 +31 +31 очень
душно
1013.4 999.7
03 23.04 штиль 0
{1}
н/о н/о +23.8 +21.4 86 +30 +30 очень
душно
1012.9 999.2
04 23.04 штиль 0
{1}
н/о н/о +23.8 +21.5 87 +30 +30 очень
душно
1012.0 998.4
05 23.04 штиль 0
{1}
н/о н/о +23.6 +21.4 87 +30 +30 очень
душно
1011.9 998.2
06 23.04 штиль 0
{1}
н/о н/о +23.8 +21.6 87 +30 +30 очень
душно
1011.2 997.6
07 23.04 штиль 0
{1}
н/о н/о +24.0 +21.9 88 +31 +31 очень
душно
1011.0 997.4
08 23.04 штиль 0
{1}
н/о н/о +24.0 +22.0 89 +31 +31 очень
душно
1011.0 997.4
09 23.04 штиль 0
{1}
н/о н/о +23.9 +21.9 89 +31 +31 очень
душно
1011.5 997.9
10 23.04 штиль 0
{1}
н/о н/о +24.3 +22.3 89 +32 +32 очень
душно
1012.0 998.4
11 23.04 штиль 0
{1}
н/о н/о +25.2 +23.1 88 +34 +34 очень
душно
1012.9 999.3
12 23.04 штиль 0
{1}
н/о н/о +26.1 +23.8 87 +36 +36 очень
душно
1013.8 1000.2
13 23.04 В 1
{2}
н/о н/о +27.6 +24.6 84 +39 +39 очень
душно
1014.3 1000.8
14 23.04 штиль 0
{2}
н/о н/о +29.5 +25.5 79 +43 +43 опасность
перегрева
1013.6 1000.2
15 23.04 В 1
{2}
н/о н/о +30.0 +25.0 75 +43 +43 опасность
перегрева
1012.9 999.5
16 23.04 В 1
{2}
н/о н/о +31.5 +25.2 69 +45 +45 опасность
перегрева
1011.5 998.2
17 23.04 ЮВ 1
{3}
н/о н/о +29.8 +24.1 72 +42 +42 опасность
перегрева
1010.7 997.3 1
18 23.04 ЮВ 1
{2}
н/о н/о +31.5 +24.7 67 +44 +44 опасность
перегрева
1009.2 995.9
19 23.04 Ю 1
{3}
н/о н/о +31.4 +23.9 64 +43 +43 опасность
перегрева
1008.6 995.3
20 23.04 ЮВ 1
{3}
н/о н/о +31.0 +23.4 64 +42 +42 опасность
перегрева
1008.6 995.3
21 23.04 штиль 0
{2}
н/о н/о +29.1 +22.0 66 +38 +38 очень
душно
1008.9 995.5
22 23.04 штиль 0
{1}
н/о н/о +27.4 +21.6 71 +35 +35 очень
душно
1009.8 996.3
23 23.04 штиль 0
{1}
н/о н/о +26.9 +22.2 75 +35 +35 очень
душно
1010.3 996.8
00 24.04 штиль 0
{1}
н/о н/о +26.1 +22.1 79 +34 +34 очень
душно
1011.0 997.5
01 24.04 штиль 0
{1}
н/о н/о +25.9 +22.2 80 +34 +34 очень
душно
1012.0 998.4
02 24.04 штиль 0
{1}
н/о н/о +25.2 +21.7 81 +32 +32 очень
душно
1012.2 998.6
03 24.04 штиль 0 н/о н/о +25.0 +21.9 83 +32 +32 очень
душно
1012.3 998.7
04 24.04 штиль 0 н/о н/о +24.4 +21.5 84 +31 +31 очень
душно
1011.8 998.2
05 24.04 штиль 0 н/о н/о +24.3 +21.6 85 +31 +31 очень
душно
1011.3 997.7
06 24.04 штиль 0 н/о н/о +24.0 +21.4 85 +30 +30 очень
душно
1011.3 997.7
07 24.04 штиль 0 н/о н/о +23.8 +21.4 86 +30 +30 очень
душно
1011.4 997.8
08 24.04 штиль 0 н/о н/о +23.7 +21.3 86 +30 +30 очень
душно
1011.4 997.8
09 24.04 штиль 0 н/о н/о +23.5 +21.2 87 +30 +30 очень
душно
1011.8 998.1
10 24.04 штиль 0 н/о н/о +24.6 +22.4 88 +32 +32 очень
душно
1012.5 998.9
11 24.04 штиль 0
{1}
н/о н/о +27.3 +24.4 84 +38 +38 очень
душно
1013.2 999.7
12 24.04 штиль 0
{1}
н/о н/о +26.6 +23.2 82 +36 +36 очень
душно
1013.9 1000.4
13 24.04 СВ 1
{2}
н/о н/о +27.7 +23.9 80 +38 +38 очень
душно
1014.0 1000.5
14 24.04 В 1
{2}
н/о н/о +28.7 +24.3 77 +40 +40 очень
душно
1013.9 1000.4
15 24.04 В 1
{2}
н/о н/о +30.1 +24.7 73 +43 +43 опасность
перегрева
1013.0 999.6
16 24.04 В 1
{3}
н/о н/о +30.8 +24.7 70 +44 +44 опасность
перегрева
1012.1 998.8
17 24.04 ЮВ 1
{4}
н/о н/о +31.8 +24.3 65 +44 +44 опасность
перегрева
1010.6 997.3
18 24.04 В 2
{3}
н/о н/о +32.9 +24.1 60 +45 +45 опасность
перегрева
1009.4 996.2
19 24.04 ЮВ 1
{4}
н/о н/о +31.8 +22.6 58 +41 +41 опасность
перегрева
1009.5 996.2
20 24.04 Ю 1
{3}
н/о н/о +30.9 +22.1 59 +40 +40 очень
душно
1009.6 996.3
21 24.04 Ю 1
{2}
н/о н/о +28.8 +21.7 66 +37 +37 очень
душно
1009.7 996.3
22 24.04 штиль 0
{1}
н/о н/о +27.3 +21.8 72 +35 +35 очень
душно
1010.4 996.9
23 24.04 штиль 0
{1}
н/о н/о +26.8 +22.3 76 +35 +35 очень
душно
1011.5 998.0
00 25.04 штиль 0 н/о н/о +26.3 +22.5 80 +35 +35 очень
душно
1012.1 998.6
01 25.04 штиль 0
{1}
н/о н/о +26.2 +22.8 82 +35 +35 очень
душно
1012.7 999.2
02 25.04 штиль 0
{1}
н/о н/о +26.1 +22.8 82 +35 +35 очень
душно
1012.7 999.1
03 25.04 штиль 0
{1}
н/о н/о +25.4 +22.4 83 +33 +33 очень
душно
1012.6 999.0
04 25.04 штиль 0 н/о н/о +25.5 +22.7 85 +34 +34 очень
душно
1012.4 998.8
05 25.04 штиль 0
{1}
н/о н/о +25.1 +22.4 85 +33 +33 очень
душно
1011.5 997.9
06 25.04 штиль 0
{1}
н/о н/о +24.9 +22.3 85 +32 +32 очень
душно
1011.4 997.8
07 25.04 штиль 0 н/о н/о +25.1 +22.7 87 +33 +33 очень
душно
1011.5 997.9
08 25.04 штиль 0 н/о н/о +25.2 +22.8 87 +33 +33 очень
душно
1011.7 998.1
09 25.04 штиль 0
{1}
н/о н/о +25.1 +22.8 87 +33 +33 очень
душно
1011.8 998.2
10 25.04 штиль 0
{1}
н/о н/о +25.5 +23.2 87 +34 +34 очень
душно
1012.4 998.8
11 25.04 штиль 0
{1}
н/о н/о +26.9 +24.5 87 +38 +38 очень
душно
1013.2 999.7
12 25.04 В 1
{2}
н/о н/о +29.5 +25.8 81 +44 +44 опасность
перегрева
1013.5 1000.1
13 25.04 СВ 1
{3}
н/о н/о +30.9 +25.8 74 +46 +46 опасность
перегрева
1013.5 1000.1
14 25.04 штиль 0
{4}
н/о н/о +32.0 +26.0 71 +48 +48 опасность
перегрева
1013.1 999.8
15 25.04 В 1
{3}
н/о н/о +32.8 +25.5 66 +48 +48 опасность
перегрева
1012.3 999.0
16 25.04 В 1
{3}
н/о н/о +32.4 +23.5 59 +43 +43 опасность
перегрева
1011.3 998.0
17 25.04 ЮВ 1
{3}
н/о н/о +32.0 +23.0 59 +42 +42 опасность
перегрева
1010.3 997.0
18 25.04 В 1
{3}
н/о н/о +33.4 +23.4 56 +44 +44 опасность
перегрева
1009.5 996.3
19 25.04 ЮВ 1
{3}
н/о н/о +31.7 +21.2 54 +39 +39 очень
душно
1009.5 996.2
20 25.04 ЮВ 1
{3}
н/о н/о +31.1 +21.3 56 +39 +39 очень
душно
1009.5 996.2
21 25.04 В 1
{2}
н/о н/о +29.8 +21.1 60 +37 +37 очень
душно
1010.2 996.8
22 25.04 штиль 0
{2}
н/о н/о +28.8 +21.4 64 +36 +36 очень
душно
1010.6 997.2
23 25.04 штиль 0
{1}
н/о н/о +27.0 +21.3 71 +34 +34 очень
душно
1011.7 998.2
00 26.04 штиль 0 н/о н/о +26.4 +21.6 75 +34 +34 очень
душно
1012.3 998.8
01 26.04 штиль 0
{1}
н/о н/о +26.4 +22.2 78 +34 +34 очень
душно
1013.1 999.6
02 26.04 штиль 0
{1}
н/о н/о +25.8 +22.0 80 +33 +33 очень
душно
1013.5 999.9
03 26.04 штиль 0 н/о н/о +25.3 +21.7 80 +32 +32 очень
душно
1013.5 999.9
04 26.04 штиль 0 н/о н/о +25.2 +21.9 82 +32 +32 очень
душно
1013.3 999.7
05 26.04 штиль 0 н/о н/о +25.2 +22.2 83 +33 +33 очень
душно
1012.9 999.3

 

Местоположение метеостанции Императрис (Токантинс, Бразилия): широта -5.55 долгота -47.67 высота над уровнем моря 128 м.

В архиве по умолчанию представлена погода в Императрисе за последнюю неделю. Архивные данные за месяц целиком и за предыдущие месяцы, начиная с января 2011 года, Вы можете получить, выбрав интересующий диапазон дат из раскрывающегося списка и нажав кнопку "Ввод!".


*Определитесь, кто Вы:
робот инопланетянин человек

Внимание! Время в таблицах - всемирное. Для получения местного времени необходимо прибавить поправку, которая равна -3 ч.

Смотрите также архив погоды в соседних городах и на ближайших метеорологических станциях:

Погода в Арагуатинсе (Токантинс, Бразилия) (51 км)
Погода в Рондон-ду-Паре (Мараньян, Бразилия) (96 км)
Погода в Эстрейту (Мараньян, Бразилия) (125 км)
Погода в Марабе (Пара, Бразилия) (165 км)
Погода в Гражау (Мараньян, Бразилия) (169 км)
Погода в Буритикупу (Мараньян, Бразилия) (192 км)
Погода в Марабе (Пара, Бразилия) (194 км)
Погода в Каролине (Мараньян, Бразилия) (199 км)
Погода в Каролине (Мараньян, Бразилия) (199 км)
Погода в Арагуаине (Токантинс, Бразилия) (200 км)

Пояснения к столбцам:

Ветер - указаны скорость ветра в м/с - средняя за 10 мин, порывы в срок и между сроками (в фигурных скобках) и направление, откуда дует ветер: С - северный, СВ - северо-восточный, В - восточный, ЮВ - юго-восточный, Ю - южный, ЮЗ - юго-западный, З - западный, СЗ - северо-западный.
Видимость - горизонтальная дальность видимости в метрах или километрах. При видимости от 1 до 10 км при отсутствии осадков обычно наблюдается дымка, при ухудшении видимости до 1 км и менее - туман. В сухую погоду видимость может ухудшаться дымом, пылью или мглою.
Явления - указаны атмосферные явления, наблюдавшиеся в срок или в последний час перед сроком; фигурными скобками обозначены явления, наблюдавшиеся между сроками (за 1-3 часа до срока); квадратными скобками обозначены град или гололедные отложения с указанием их диаметра в мм.
Облачность - указаны через наклонную черту общая и нижняя облачность в баллах и высота нижней границы облаков в метрах; квадратными скобками обозначены формы облаков: Ci - перистые, Cs - перисто-слоистые, Cc - перисто-кучевые, Ac - высококучевые, As - высокослоистые, Sc - слоисто-кучевые, Ns - слоисто-дождевые, Cu - кучевые, Cb - кучево-дождевые. Подробнее классификацию облаков см. в Атласе облаков (PDF).
T - Температура воздуха - температура, измеренная на высоте 2 м над землей.
Td - Температура точки росы - температура, при понижении до которой содержащийся в воздухе водяной пар достигнет насыщения.
f - Относительная влажность воздуха - влажноcть воздуха, измеренная на высоте 2 м над землей.
Te - Эффективная температура - температура, которую ощущает одетый по сезону человек в тени. Характеристика душности погоды. При расчете учитывается влияние влажности воздуха и скорости ветра на теплоощущения человека.
Tes - Эффективная температура на солнце - температура, которую ощущает человек, с поправкой на солнечный нагрев. Характеристика знойности погоды. Зависит от высоты солнца над горизонтом, облачности и скорости ветра. Ночью, в пасмурную погоду, а также при ветре 12 м/с и более поправка равна нулю.
P - Атмосферное давление - приведенное к уровню моря атмосферное давление.
Po - Атмосферное давление - измеренное на уровне метеостанции атмосферное давление.
Tmin - Минимальная температура - минимум температуры воздуха на высоте 2 м над землей.
Tmax - Максимальная температура - максимум температуры воздуха на высоте 2 м над землей.
R - Количество осадков - Количество выпавших осадков за период времени, мм. При наведении курсора мыши на число - период времени, за который выпало указанное количество осадков.
R24 - Количество осадков - Количество выпавших осадков за 24 часа, мм.
S - Снежный покров - Высота снежного покрова, см. При наведении курсора мыши на число - состояние снежного покрова и степень покрытия местности в баллах.